| time (UTC) | temp F | wind direction | speed MPH | gust MPH | rain 1hr in | rain 24hr in | rain mn in | humidity % | barometer mb |
| 20260504220136 | 72 | 198 | 1.0 | 8.0 | 0.00 | 0.00 | 0.00 | 32 | 1009.7 |
| 20260504214558 | 72 | 0 | 1.0 | 14.0 | 0.00 | 0.00 | 0.00 | 34 | 1009.6 |
| 20260504213126 | 72 | 0 | 4.0 | 13.0 | 0.00 | 0.00 | 0.00 | 31 | 1009.6 |
| 20260504211558 | 72 | 211 | 0.0 | 13.0 | 0.00 | 0.00 | 0.00 | 32 | 1009.6 |
| 20260504210101 | 73 | 173 | 1.0 | 11.0 | 0.00 | 0.00 | 0.00 | 31 | 1009.6 |
| 20260504204603 | 73 | 250 | 1.0 | 9.0 | 0.00 | 0.00 | 0.00 | 30 | 1009.8 |
| 20260504203053 | 72 | 207 | 3.0 | 14.0 | 0.00 | 0.00 | 0.00 | 31 | 1009.9 |
| 20260504201554 | 72 | 259 | 6.0 | 15.0 | 0.00 | 0.00 | 0.00 | 32 | 1010.0 |
| 20260504200110 | 72 | 213 | 4.0 | 13.0 | 0.00 | 0.00 | 0.00 | 31 | 1010.1 |
| 20260504194549 | 72 | 273 | 2.0 | 15.0 | 0.00 | 0.00 | 0.00 | 31 | 1010.2 |
| 20260504193051 | 72 | 225 | 2.0 | 15.0 | 0.00 | 0.00 | 0.00 | 31 | 1010.2 |
| 20260504191559 | 72 | 128 | 0.0 | 10.0 | 0.00 | 0.00 | 0.00 | 31 | 1010.2 |
| 20260504190054 | 71 | 242 | 4.0 | 13.0 | 0.00 | 0.00 | 0.00 | 34 | 1010.4 |
| 20260504184600 | 71 | 225 | 2.0 | 14.0 | 0.00 | 0.00 | 0.00 | 29 | 1010.7 |
| 20260504183051 | 71 | 242 | 4.0 | 12.0 | 0.00 | 0.00 | 0.00 | 30 | 1011.0 |
| 20260504181553 | 70 | 0 | 2.0 | 13.0 | 0.00 | 0.00 | 0.00 | 35 | 1011.0 |
| 20260504180055 | 69 | 202 | 4.0 | 13.0 | 0.00 | 0.00 | 0.00 | 33 | 1011.4 |
| 20260504174556 | 70 | 0 | 4.0 | 12.0 | 0.00 | 0.00 | 0.00 | 34 | 1011.6 |
| 20260504173100 | 69 | 208 | 3.0 | 13.0 | 0.00 | 0.00 | 0.00 | 34 | 1011.8 |
| 20260504171556 | 68 | 268 | 2.0 | 15.0 | 0.00 | 0.00 | 0.00 | 37 | 1012.0 |
| 20260504160106 | 66 | 212 | 3.0 | 11.0 | 0.00 | 0.00 | 0.00 | 36 | 1013.0 |
| 20260504081552 | 40 | 0 | 0.0 | 0.0 | 0.00 | 0.00 | 0.00 | 75 | 1014.4 |
| 20260504044554 | 43 | 0 | 0.0 | 0.0 | 0.00 | 0.00 | 0.00 | 63 | 1014.3 |
| 20260504043058 | 43 | 0 | 0.0 | 0.0 | 0.00 | 0.00 | 0.00 | 62 | 1014.2 |
| 20260504041554 | 44 | 0 | 0.0 | 0.0 | 0.00 | 0.00 | 0.00 | 61 | 1014.0 |
| 20260504040053 | 44 | 0 | 0.0 | 0.0 | 0.00 | 0.00 | 0.00 | 60 | 1013.8 |
| 20260504034554 | 44 | 0 | 0.0 | 0.0 | 0.00 | 0.00 | 0.00 | 59 | 1013.8 |
| 20260504033054 | 45 | 0 | 0.0 | 0.0 | 0.00 | 0.00 | 0.00 | 58 | 1013.7 |
| 20260504031551 | 45 | 0 | 0.0 | 0.0 | 0.00 | 0.00 | 0.00 | 58 | 1013.7 |
| 20260504030052 | 45 | 0 | 0.0 | 0.0 | 0.00 | 0.00 | 0.00 | 58 | 1013.5 |
| 20260504024553 | 45 | 0 | 0.0 | 0.0 | 0.00 | 0.00 | 0.00 | 59 | 1013.6 |
| 20260504023057 | 45 | 0 | 0.0 | 0.0 | 0.00 | 0.00 | 0.00 | 58 | 1013.6 |
| 20260504021555 | 46 | 0 | 0.0 | 0.0 | 0.00 | 0.00 | 0.00 | 55 | 1013.7 |
| 20260504020127 | 47 | 0 | 0.0 | 0.0 | 0.00 | 0.00 | 0.00 | 53 | 1013.5 |
| 20260504014601 | 48 | 0 | 0.0 | 0.0 | 0.00 | 0.00 | 0.00 | 53 | 1013.4 |
| 20260504013105 | 48 | 0 | 0.0 | 0.0 | 0.00 | 0.00 | 0.00 | 50 | 1013.5 |
| 20260504011553 | 49 | 0 | 0.0 | 0.0 | 0.00 | 0.00 | 0.00 | 47 | 1013.3 |
| 20260504010051 | 51 | 0 | 0.0 | 0.0 | 0.00 | 0.00 | 0.00 | 45 | 1013.0 |
| 20260504004623 | 52 | 0 | 0.0 | 0.0 | 0.00 | 0.00 | 0.00 | 42 | 1012.9 |
| 20260504003059 | 53 | 0 | 0.0 | 0.0 | 0.00 | 0.00 | 0.00 | 40 | 1012.7 |
| 20260504001619 | 54 | 0 | 0.0 | 2.0 | 0.00 | 0.00 | 0.00 | 40 | 1012.5 |
| 20260504000101 | 55 | 0 | 0.0 | 4.0 | 0.00 | 0.00 | 0.00 | 37 | 1012.4 |
| 20260503234604 | 56 | 0 | 0.0 | 3.0 | 0.00 | 0.00 | 0.00 | 34 | 1012.2 |
| 20260503233052 | 57 | 0 | 0.0 | 7.0 | 0.00 | 0.00 | 0.00 | 32 | 1012.2 |
| 20260503231550 | 57 | 0 | 0.0 | 11.0 | 0.00 | 0.00 | 0.00 | 32 | 1012.2 |
| 20260503230110 | 58 | 0 | 0.0 | 11.0 | 0.00 | 0.00 | 0.00 | 32 | 1011.9 |
| 20260503224556 | 58 | 227 | 1.0 | 7.0 | 0.00 | 0.00 | 0.00 | 31 | 1012.1 |
| 20260503223051 | 58 | 0 | 2.0 | 11.0 | 0.00 | 0.00 | 0.00 | 28 | 1012.0 |
| 20260503221603 | 59 | 0 | 2.0 | 13.0 | 0.00 | 0.00 | 0.00 | 27 | 1011.9 |
| 20260503220055 | 60 | 0 | 1.0 | 9.0 | 0.00 | 0.00 | 0.00 | 27 | 1011.8 |
| 20260503214600 | 61 | 225 | 0.0 | 8.0 | 0.00 | 0.00 | 0.00 | 27 | 1011.8 |
| 20260503213053 | 60 | 322 | 1.0 | 18.0 | 0.00 | 0.00 | 0.00 | 30 | 1011.8 |
| 20260503211556 | 60 | 0 | 0.0 | 8.0 | 0.00 | 0.00 | 0.00 | 31 | 1011.8 |
| 20260503210051 | 60 | 0 | 0.0 | 10.0 | 0.00 | 0.00 | 0.00 | 30 | 1011.9 |
| 20260503204554 | 60 | 297 | 4.0 | 16.0 | 0.00 | 0.00 | 0.00 | 27 | 1012.0 |
| 20260503203108 | 60 | 25 | 3.0 | 14.0 | 0.00 | 0.00 | 0.00 | 29 | 1012.0 |
| 20260503201555 | 59 | 211 | 4.0 | 15.0 | 0.00 | 0.00 | 0.00 | 29 | 1012.0 |
| 20260503200052 | 59 | 146 | 2.0 | 8.0 | 0.00 | 0.00 | 0.00 | 39 | 1012.2 |
| 20260503194557 | 59 | 262 | 2.0 | 11.0 | 0.00 | 0.00 | 0.00 | 33 | 1012.2 |
| 20260503193055 | 59 | 0 | 3.0 | 15.0 | 0.00 | 0.00 | 0.00 | 36 | 1012.3 |
| 20260503191553 | 59 | 0 | 4.0 | 15.0 | 0.00 | 0.00 | 0.00 | 30 | 1012.4 |
| 20260503190058 | 59 | 309 | 2.0 | 13.0 | 0.00 | 0.00 | 0.00 | 33 | 1012.7 |
| 20260503184552 | 58 | 51 | 2.0 | 12.0 | 0.00 | 0.00 | 0.00 | 35 | 1012.8 |
| 20260503183055 | 57 | 326 | 1.0 | 14.0 | 0.00 | 0.00 | 0.00 | 35 | 1013.0 |
| 20260503181600 | 57 | 0 | 3.0 | 12.0 | 0.00 | 0.00 | 0.00 | 33 | 1013.1 |
| 20260503180055 | 56 | 303 | 3.0 | 11.0 | 0.00 | 0.00 | 0.00 | 37 | 1013.1 |
| 20260503174551 | 56 | 0 | 0.0 | 17.0 | 0.00 | 0.00 | 0.00 | 36 | 1013.0 |
| 20260503173055 | 55 | 0 | 2.0 | 16.0 | 0.00 | 0.00 | 0.00 | 38 | 1013.3 |
| 20260503171604 | 54 | 0 | 3.0 | 11.0 | 0.00 | 0.00 | 0.00 | 36 | 1013.3 |